Location: Newark
(30.1000°N, 109.4667°E)
Time: 22:09:55
(UTC+00:00)

A-11 Canister half - Visible Passes

Search period start: 18 February 2020 00:00
Search period end: 28 February 2020 00:00
Orbit: 1517 x 1683 km, 47.2° (Epoch: 17 February)

Date Brightness Start Highest point End Pass type
(mag) Time Alt. Az. Time Alt. Az. Time Alt. Az.
18 Feb 10.2 11:28:23 10° WNW 11:36:53 31° NNW 11:45:10 10° NE visible
18 Feb 10.1 13:36:26 10° NW 13:43:26 29° N 13:43:26 29° N visible
19 Feb 10.2 11:05:12 10° WNW 11:13:49 32° NNW 11:22:12 10° NE visible
19 Feb 10.0 13:13:24 10° NW 13:21:34 30° N 13:21:48 30° NNE visible
19 Feb 11.1 15:18:52 10° NW 15:20:01 14° NW 15:20:01 14° NW visible
20 Feb 10.2 10:42:02 10° W 10:50:46 33° NNW 10:59:16 10° NE visible
20 Feb 10.0 12:50:21 10° NW 12:58:30 29° N 13:00:11 28° NNE visible
20 Feb 10.8 14:55:56 10° NW 14:58:24 20° NW 14:58:24 20° NW visible
21 Feb 10.0 12:27:18 10° NW 12:35:26 29° N 12:38:35 24° NE visible
21 Feb 10.4 14:33:00 10° NW 14:36:47 26° NW 14:36:47 26° NW visible
22 Feb 10.1 12:04:13 10° NW 12:12:22 28° N 12:16:59 20° NE visible
22 Feb 10.1 14:10:04 10° NW 14:15:11 33° NNW 14:15:11 33° NNW visible
23 Feb 10.2 11:41:08 10° NW 11:49:16 28° N 11:55:24 15° NE visible
23 Feb 9.8 13:47:07 10° NW 13:53:36 40° NNW 13:53:36 40° NNW visible
24 Feb 10.2 11:18:02 10° NW 11:26:11 28° N 11:33:51 11° ENE visible
24 Feb 9.5 13:24:10 10° NW 13:32:03 45° N 13:32:03 45° N visible
24 Feb 11.1 15:29:18 10° WNW 15:30:15 14° WNW 15:30:15 14° WNW visible
25 Feb 10.2 10:54:56 10° NW 11:03:06 28° N 11:11:03 10° ENE visible
25 Feb 9.4 13:01:14 10° NW 13:10:25 45° NNE 13:10:31 45° NNE visible
25 Feb 10.8 15:06:18 10° NW 15:08:44 20° WNW 15:08:44 20° WNW visible
26 Feb 9.4 12:38:16 10° NW 12:47:25 43° NNE 12:49:02 41° NE visible
26 Feb 10.4 14:43:21 10° NW 14:47:15 28° WNW 14:47:15 28° WNW visible
27 Feb 9.5 12:15:18 10° NW 12:24:25 42° NNE 12:27:34 33° ENE visible
27 Feb 9.9 14:20:22 10° NW 14:25:47 39° WNW 14:25:47 39° WNW visible
